When you browse on this site, cookies collect data to enhance your experience and personalize the content and advertising you see.
Visit our Privacy Policy to learn more. By continuing to use the site, you agree to this use of cookies and data.
  • In Romania
  • List of Countries
  • For 7 days
  • Water Temperature
  • Weather Map
  • Weather Widgets
  • user-avatar
    Login

    Hourly Weather Kuznetsovsk (Varash)

    Today, 29 January, Wednesday

    Time Temperature Precipitation Wind Pressure Humidity
    00:00 +2°C° 0 mm 3 mps 735 mmHg 89%
    01:00 +2°C° 0 mm 3 mps 735 mmHg 90%
    02:00 +1°C° 0 mm 3 mps 734 mmHg 92%
    03:00 +1°C° 0 mm 3 mps 734 mmHg 92%
    04:00 +1°C° 0 mm 3 mps 733 mmHg 92%
    05:00 +2°C° 0 mm 2 mps 732 mmHg 91%
    06:00 +2°C° 0.6 mm 2 mps 733 mmHg 93%
    07:00 +1°C° 0.6 mm 3 mps 733 mmHg 95%
    08:00 +1°C° 0 mm 3 mps 733 mmHg 97%
    09:00 0°C° 0.6 mm 4 mps 733 mmHg 96%
    10:00 0°C° 0.6 mm 4 mps 733 mmHg 96%
    11:00 0°C° 0.6 mm 5 mps 733 mmHg 95%
    12:00 0°C° 0 mm 5 mps 734 mmHg 88%
    13:00 +1°C° 0 mm 5 mps 734 mmHg 81%
    14:00 +1°C° 0 mm 5 mps 735 mmHg 73%
    15:00 +1°C° 0 mm 4 mps 735 mmHg 72%
    16:00 0°C° 0 mm 4 mps 735 mmHg 72%
    17:00 +1°C° 0 mm 3 mps 735 mmHg 72%
    18:00 0°C° 0 mm 4 mps 735 mmHg 78%
    19:00 -1°C° 0 mm 4 mps 735 mmHg 85%
    20:00 -2°C° 0 mm 5 mps 735 mmHg 92%
    21:00 -1°C° 0.2 mm 5 mps 735 mmHg 93%
    22:00 -1°C° 0.2 mm 5 mps 735 mmHg 94%
    23:00 -2°C° 0.2 mm 6 mps 735 mmHg 96%

    Tomorrow, 30 January, Thursday

    Time Temperature Precipitation Wind Pressure Humidity
    00:00 -2°C° 0.7 mm 6 mps 735 mmHg 95%
    01:00 -2°C° 0.7 mm 6 mps 736 mmHg 94%
    02:00 -2°C° 0.7 mm 6 mps 736 mmHg 94%
    03:00 -2°C° 0.2 mm 6 mps 736 mmHg 94%
    04:00 -2°C° 0.2 mm 6 mps 737 mmHg 94%
    05:00 -1°C° 0.2 mm 6 mps 737 mmHg 94%
    06:00 -1°C° 0.1 mm 6 mps 737 mmHg 93%
    07:00 -1°C° 0.1 mm 6 mps 738 mmHg 91%
    08:00 0°C° 0.1 mm 5 mps 738 mmHg 90%
    09:00 0°C° 0.1 mm 5 mps 738 mmHg 90%
    10:00 0°C° 0.1 mm 5 mps 738 mmHg 90%
    11:00 0°C° 0.1 mm 5 mps 739 mmHg 90%
    12:00 0°C° 0 mm 5 mps 739 mmHg 86%
    13:00 +1°C° 0 mm 5 mps 739 mmHg 82%
    14:00 +1°C° 0 mm 5 mps 740 mmHg 78%
    15:00 +1°C° 0.1 mm 5 mps 740 mmHg 82%
    16:00 0°C° 0.1 mm 5 mps 740 mmHg 85%
    17:00 0°C° 0.1 mm 4 mps 740 mmHg 88%
    18:00 0°C° 0 mm 4 mps 740 mmHg 86%
    19:00 0°C° 0 mm 4 mps 741 mmHg 83%
    20:00 0°C° 0 mm 4 mps 741 mmHg 81%
    21:00 0°C° 0 mm 4 mps 740 mmHg 81%
    22:00 0°C° 0 mm 4 mps 740 mmHg 80%
    23:00 0°C° 0 mm 4 mps 740 mmHg 80%

    Day after tomorrow, 31 January, Friday

    Time Temperature Precipitation Wind Pressure Humidity
    00:00 0°C° 0.2 mm 5 mps 739 mmHg 86%
    01:00 0°C° 0.2 mm 5 mps 739 mmHg 91%
    02:00 0°C° 0.2 mm 5 mps 739 mmHg 96%
    03:00 0°C° 0.5 mm 5 mps 738 mmHg 96%
    04:00 +1°C° 0.5 mm 5 mps 738 mmHg 95%
    05:00 +1°C° 0.5 mm 5 mps 737 mmHg 95%
    06:00 +1°C° 0.5 mm 6 mps 737 mmHg 94%
    07:00 +1°C° 0.5 mm 6 mps 736 mmHg 94%
    08:00 +1°C° 0.5 mm 6 mps 736 mmHg 93%
    09:00 +1°C° 0.1 mm 6 mps 735 mmHg 92%
    10:00 +1°C° 0.1 mm 5 mps 735 mmHg 91%
    11:00 +1°C° 0.1 mm 5 mps 735 mmHg 90%
    12:00 0°C° 1.1 mm 5 mps 734 mmHg 92%
    13:00 0°C° 1.1 mm 4 mps 734 mmHg 94%
    14:00 +1°C° 1.1 mm 3 mps 733 mmHg 96%
    15:00 +1°C° 0.4 mm 3 mps 734 mmHg 97%
    16:00 +2°C° 0.4 mm 2 mps 734 mmHg 97%
    17:00 +4°C° 0.4 mm 1 mps 734 mmHg 98%
    18:00 +3°C° 0 mm 2 mps 735 mmHg 97%
    19:00 +3°C° 0 mm 2 mps 735 mmHg 97%
    20:00 +3°C° 0 mm 2 mps 736 mmHg 96%
    21:00 +3°C° 0 mm 2 mps 736 mmHg 96%
    22:00 +3°C° 0 mm 2 mps 737 mmHg 96%
    23:00 +3°C° 0 mm 2 mps 737 mmHg 96%

    1 February, Saturday

    Time Temperature Precipitation Wind Pressure Humidity
    00:00 +3°C° 0.1 mm 2 mps 738 mmHg 96%
    01:00 +3°C° 0.1 mm 3 mps 738 mmHg 95%
    02:00 +3°C° 0.1 mm 3 mps 739 mmHg 95%
    03:00 +3°C° 0.2 mm 3 mps 739 mmHg 94%
    04:00 +4°C° 0.2 mm 4 mps 739 mmHg 93%
    05:00 +4°C° 0.2 mm 4 mps 739 mmHg 92%
    06:00 +4°C° 0 mm 4 mps 739 mmHg 92%
    07:00 +4°C° 0 mm 4 mps 739 mmHg 92%
    08:00 +4°C° 0 mm 4 mps 739 mmHg 92%
    09:00 +4°C° 0 mm 4 mps 739 mmHg 92%
    10:00 +4°C° 0 mm 4 mps 739 mmHg 92%
    11:00 +5°C° 0 mm 4 mps 739 mmHg 92%
    12:00 +5°C° 0.2 mm 4 mps 739 mmHg 92%
    13:00 +5°C° 0.2 mm 4 mps 739 mmHg 92%
    14:00 +5°C° 0.2 mm 4 mps 739 mmHg 92%
    15:00 +6°C° 0.3 mm 5 mps 738 mmHg 89%
    16:00 +6°C° 0.3 mm 5 mps 738 mmHg 86%
    17:00 +6°C° 0.3 mm 5 mps 738 mmHg 84%
    18:00 +6°C° 0 mm 5 mps 738 mmHg 83%
    19:00 +6°C° 0 mm 5 mps 738 mmHg 83%
    20:00 +5°C° 0 mm 6 mps 737 mmHg 82%
    21:00 +6°C° 0 mm 5 mps 737 mmHg 83%
    22:00 +6°C° 0 mm 5 mps 736 mmHg 83%
    23:00 +6°C° 0 mm 5 mps 736 mmHg 83%

    2 February, Sunday

    Time Temperature Precipitation Wind Pressure Humidity
    00:00 +6°C° 0.1 mm 5 mps 735 mmHg 85%
    01:00 +6°C° 0.1 mm 5 mps 735 mmHg 86%
    02:00 +6°C° 0.1 mm 5 mps 734 mmHg 88%
    03:00 +5°C° 0.6 mm 6 mps 733 mmHg 89%
    04:00 +5°C° 0.6 mm 6 mps 733 mmHg 89%
    05:00 +6°C° 0.6 mm 7 mps 732 mmHg 90%
    06:00 +6°C° 0.2 mm 7 mps 732 mmHg 89%
    07:00 +7°C° 0.2 mm 6 mps 732 mmHg 89%
    08:00 +7°C° 0.2 mm 6 mps 731 mmHg 88%
    09:00 +7°C° 1.1 mm 6 mps 732 mmHg 89%
    10:00 +7°C° 1.1 mm 6 mps 732 mmHg 90%
    11:00 +7°C° 1.1 mm 6 mps 733 mmHg 91%
    12:00 +5°C° 1.1 mm 7 mps 734 mmHg 84%
    13:00 +5°C° 1.1 mm 7 mps 735 mmHg 77%
    14:00 +4°C° 1.1 mm 8 mps 735 mmHg 70%
    15:00 +4°C° 0 mm 7 mps 736 mmHg 72%
    16:00 +3°C° 0 mm 7 mps 736 mmHg 73%
    17:00 +3°C° 0 mm 6 mps 737 mmHg 74%
    18:00 +3°C° 0 mm 6 mps 737 mmHg 78%
    19:00 +3°C° 0 mm 6 mps 737 mmHg 81%
    20:00 +2°C° 0 mm 6 mps 737 mmHg 85%
    21:00 +3°C° 0.2 mm 6 mps 737 mmHg 86%
    22:00 +3°C° 0.2 mm 6 mps 737 mmHg 87%
    23:00 +3°C° 0.2 mm 6 mps 737 mmHg 88%

    3 February, Monday

    Time Temperature Precipitation Wind Pressure Humidity
    00:00 +3°C° 0.1 mm 6 mps 737 mmHg 83%
    01:00 +2°C° 0.1 mm 6 mps 737 mmHg 79%
    02:00 +2°C° 0.1 mm 6 mps 737 mmHg 75%
    03:00 +2°C° 0 mm 6 mps 737 mmHg 75%
    04:00 +2°C° 0 mm 6 mps 737 mmHg 76%
    05:00 +2°C° 0 mm 6 mps 737 mmHg 76%
    06:00 +2°C° 0 mm 6 mps 737 mmHg 77%
    07:00 +1°C° 0 mm 6 mps 737 mmHg 77%
    08:00 +1°C° 0 mm 6 mps 737 mmHg 77%
    09:00 +1°C° 0 mm 6 mps 737 mmHg 78%
    10:00 +1°C° 0 mm 6 mps 738 mmHg 79%
    11:00 +2°C° 0 mm 6 mps 738 mmHg 80%
    12:00 +2°C° 0.1 mm 6 mps 739 mmHg 76%
    13:00 +2°C° 0.1 mm 6 mps 739 mmHg 72%
    14:00 +3°C° 0.1 mm 6 mps 739 mmHg 67%
    15:00 +2°C° 0 mm 6 mps 740 mmHg 68%
    16:00 +2°C° 0 mm 5 mps 740 mmHg 68%
    17:00 +1°C° 0 mm 5 mps 740 mmHg 68%
    18:00 +1°C° 0 mm 5 mps 740 mmHg 71%
    19:00 +1°C° 0 mm 5 mps 741 mmHg 73%
    20:00 +1°C° 0 mm 5 mps 741 mmHg 76%
    21:00 0°C° 0 mm 4 mps 741 mmHg 77%
    22:00 0°C° 0 mm 4 mps 741 mmHg 78%
    23:00 0°C° 0 mm 3 mps 741 mmHg 79%
    Show more